Terminal Aerodrome Forecast
Issued by NWS Grand Forks, ND

Home | Current Version | Previous Version | Text Only | Print | Product List | Glossary Off
Versions: 1 2 3 4 5 6 7 8 9 10 11 12 13 14 15 16 17 18 19 20 21

000
FTUS43 KFGF 290200 AAA
TAFFAR
TAF AMD
KFAR 290211Z 2902/2924 15008KT P6SM OVC015
     FM290900 18006KT 4SM BR OVC007
     FM291500 23004KT P6SM BKN015
     FM291800 34005KT P6SM BKN050=

USA.gov is the U.S. government's official web portal to all federal, state and local government web resources and services.